Weather Roundup
Issued by NWS Chicago, IL

Home | Current Version | Previous Version | Graphics & Text | Print | Product List | Glossary On
Versions: 1 2 3 4 5 6 7 8 9 10 11 12 13 14 15 16 17 18 19 20 21 22 23 24 25 26 27 28 29 30 31 32 33 34 35 36 37 38 39 40 41 42 43 44 45 46 47 48 49 50
000
NZUS59 KLOT 272000
HRRLOT

CHICAGO AREA WEATHER ROUNDUP
NATIONAL WEATHER SERVICE CHICAGO/ROMEOVILLE IL
200 PM CST TUE JAN 27 2015

NOTE: "FAIR" INDICATES FEW OR NO CLOUDS BELOW 12,000 FEET WITH NO
SIGNIFICANT WEATHER AND/OR OBSTRUCTIONS TO VISIBILITY.

* THESE STATIONS ARE NOT UNDER NWS QUALITY CONTROL. THEY ALSO MAY NOT
  REPORT WEATHER SUCH AS PRECIPITATION OR FOG.

ILZ005-006-012>014-019>023-272100-
NORTHEAST ILLINOIS

CITY           SKY/WX    TMP DP  RH WIND       PRES   REMARKS
OHARE          MOSUNNY   31  18  58 NE7       30.17R WCI  24
MIDWAY         MOSUNNY   32  20  61 NE8       30.18R WCI  25
AURORA         CLOUDY    31  22  69 N8        30.18R WCI  23
WAUKEGAN       SUNNY     29  17  61 N7        30.18R WCI  22
DUPAGE AIRPORT MOSUNNY   31  20  63 NE5       30.16S WCI  26
WHEELING       SUNNY     30  17  58 NE8       30.20R WCI  22
NORTHERLY IS     N/A     29  19  66 NE9         N/A  WCI  21
$$

WIZ051-052-058>065-066-070>072-272100-
SOUTHEAST WISCONSIN

CITY           SKY/WX    TMP DP  RH WIND       PRES   REMARKS
MILWAUKEE      MOSUNNY   29  16  58 NE10      30.20R WCI  20
KENOSHA*       SUNNY     31  17  56 VRB7      30.18S WCI  24
RACINE*        SUNNY     30  17  58 NE12      30.21R WCI  20
WAUKESHA       MOSUNNY   28  16  59 NE7       30.18S WCI  21
$$

INZ001>003-010>013-019-020-272100-
NORTHWEST INDIANA

CITY           SKY/WX    TMP DP  RH WIND       PRES   REMARKS
GARY*          MOSUNNY   32  14  47 NE10      30.18S WCI  24
MICHIGAN CITY* NOT AVBL
RENSSELAER*    NOT AVBL
$$

LMZ740>746-272100-
SOUTHERN LAKE MICHIGAN

STATION/POSITION TIME  SKY/WX   TEMP WIND        PRES    VSBY
                                AIR  DIR/SP/G
                 (UTC)          (F)  (DEG/KT/KT) (MB)    (MI)
HARRISON CRIB    1900            27   20/ 10/ 11   N/A
BURNHAM HARBOR   2000            29   30/  8/  9   N/A
CALUMET HARBOR   1900            29   20/  8/ 11   N/A
BURNS HARBOR     NOT AVBL
MICHIGAN CITY    1900            27  340/ 11/ 13   N/A
$$

ABBREVIATIONS USED IN REMARKS
   TC - TEMPERATURE IN CELSIUS
  WCI - WIND CHILL INDEX
   HX - HEAT INDEX
  VSB - VISIBILITY
$$



USA.gov is the U.S. government's official web portal to all federal, state and local government web resources and services.